Santorini Island, Greece

8:13 PM EET on February 19, 2018 (GMT +0200)
Santorini

Weather History for LGSR - December, 2012

Change the Weather History Date:

Thursday, December 27, 2012

  Actual Average Record
Temperature  
Mean Temperature 58 °F -  
Max Temperature 62 °F 57 °F 66 °F (2000)
Min Temperature 55 °F 51 °F 41 °F (2006)
Degree Days  
Heating Degree Days 6    
Growing Degree Days 8 (Base 50)    
Moisture  
Dew Point 52 °F    
Average Humidity 77    
Maximum Humidity 88    
Minimum Humidity 68    
Precipitation  
Precipitation 0.00 in - - ()
Sea Level Pressure  
Sea Level Pressure 30.16 in    
Wind  
Wind Speed 2 mph ()    
Max Wind Speed 8 mph    
Max Gust Speed -    
Visibility 6.2 miles    
Events Rain    
Averages and records for this station are not official NWS values.
T = Trace of Precipitation, MM = Missing Value Source: Averaged Metar Reports

Daily Weather History Graph

Daily Weather History Graph

Search for Another Location

Airport or City:

Trip Planner

Search our weather history database for the weather conditions in past years. The results will help you decide how hot, cold, wet, or windy it might be!

Date:

Astronomy

Dec. 27, 2012 Rise Set
Actual Time 7:28 AM EET 5:10 PM EET
Civil Twilight 6:59 AM EET 5:38 PM EET
Nautical Twilight 6:27 AM EET 6:11 PM EET
Astronomical Twilight 5:56 AM EET 6:42 PM EET
Moon 4:36 PM EET (12/27) 6:25 AM EET (12/27)
Length of Visible Light 10h 39m
Length of Day
9h 41m
Waxing Gibbous, 99% of the Moon is Illuminated
Dec 27
Waxing Gibbous
Dec 28
Full
Jan 5
Last Quarter
Jan 11
New
Jan 19
First Quarter

Hourly Weather History & Observations

Time (EET) Temp. Dew Point Humidity Pressure Visibility Wind Dir Wind Speed Gust Speed Precip Events Conditions
12:20 AM 57.2 °F 53.6 °F 88% 30.21 in - Calm Calm - N/A   Unknown
12:50 AM 57.2 °F 53.6 °F 88% 30.21 in - Calm Calm - N/A   Unknown
1:20 AM 59.0 °F 53.6 °F 82% 30.18 in - Calm Calm - N/A   Unknown
1:50 AM 59.0 °F 53.6 °F 82% 30.18 in - Calm Calm - N/A   Unknown
2:20 AM 59.0 °F 53.6 °F 82% 30.18 in - Calm Calm - N/A   Unknown
2:50 AM 59.0 °F 53.6 °F 82% 30.18 in - Calm Calm - N/A   Unknown
3:20 AM 59.0 °F 51.8 °F 77% 30.18 in - Calm Calm - N/A   Unknown
3:50 AM 57.2 °F 51.8 °F 82% 30.18 in - Calm Calm - N/A   Unknown
4:20 AM 59.0 °F 51.8 °F 77% 30.18 in - Calm Calm - N/A   Unknown
4:50 AM 57.2 °F 51.8 °F 82% 30.15 in - Calm Calm - N/A   Unknown
5:20 AM 57.2 °F 51.8 °F 82% 30.18 in - Calm Calm - N/A   Unknown
5:50 AM 57.2 °F 51.8 °F 82% 30.18 in - Calm Calm - N/A   Unknown
6:20 AM 55.4 °F 50.0 °F 82% 30.18 in - Calm Calm - N/A   Unknown
6:50 AM 55.4 °F 50.0 °F 82% 30.18 in 6.2 mi SW 3.5 mph - N/A   Partly Cloudy
7:20 AM 55.4 °F 50.0 °F 82% 30.18 in 6.2 mi WSW 3.5 mph - N/A   Partly Cloudy
7:50 AM 57.2 °F 51.8 °F 82% 30.18 in 6.2 mi Calm Calm - N/A   Scattered Clouds
8:20 AM 57.2 °F 51.8 °F 82% 30.18 in 6.2 mi Calm Calm - N/A   Scattered Clouds
8:50 AM 59.0 °F 51.8 °F 77% 30.18 in 6.2 mi South 4.6 mph - N/A   Scattered Clouds
9:20 AM 60.8 °F 51.8 °F 72% 30.18 in 6.2 mi South 6.9 mph - N/A   Mostly Cloudy
9:50 AM 60.8 °F 51.8 °F 72% 30.18 in 6.2 mi South 5.8 mph - N/A   Mostly Cloudy
10:20 AM 60.8 °F 53.6 °F 77% 30.18 in 6.2 mi SSE 6.9 mph - N/A   Mostly Cloudy
10:50 AM 60.8 °F 53.6 °F 77% 30.18 in 6.2 mi South 5.8 mph - N/A   Mostly Cloudy
11:20 AM 60.8 °F 51.8 °F 72% 30.18 in 6.2 mi SSW 4.6 mph - N/A   Mostly Cloudy
11:50 AM 60.8 °F 51.8 °F 72% 30.18 in 6.2 mi South 5.8 mph - N/A   Mostly Cloudy
12:20 PM 60.8 °F 51.8 °F 72% 30.18 in 6.2 mi SSW 5.8 mph - N/A   Mostly Cloudy
12:50 PM 62.6 °F 51.8 °F 68% 30.15 in 6.2 mi SSW 5.8 mph - N/A   Mostly Cloudy
1:20 PM 62.6 °F 51.8 °F 68% 30.15 in 6.2 mi South 5.8 mph - N/A   Mostly Cloudy
1:50 PM 62.6 °F 51.8 °F 68% 30.15 in 6.2 mi SSW 3.5 mph - N/A   Mostly Cloudy
2:20 PM 62.6 °F 51.8 °F 68% 30.15 in 6.2 mi SSW 5.8 mph - N/A   Mostly Cloudy
2:50 PM 62.6 °F 51.8 °F 68% 30.15 in 6.2 mi SSW 5.8 mph - N/A   Mostly Cloudy
3:20 PM 60.8 °F 51.8 °F 72% 30.12 in 6.2 mi South 4.6 mph - N/A   Mostly Cloudy
3:50 PM 60.8 °F 51.8 °F 72% 30.12 in 6.2 mi South 8.1 mph - N/A   Mostly Cloudy
4:20 PM 60.8 °F 51.8 °F 72% 30.12 in 6.2 mi SSW 6.9 mph - N/A   Mostly Cloudy
4:50 PM 60.8 °F 51.8 °F 72% 30.12 in 6.2 mi South 6.9 mph - N/A   Mostly Cloudy
5:20 PM 60.8 °F 51.8 °F 72% 30.12 in 6.2 mi SSW 5.8 mph - N/A   Mostly Cloudy
5:50 PM 60.8 °F 51.8 °F 72% 30.12 in 6.2 mi South 4.6 mph - N/A   Mostly Cloudy
6:20 PM 60.8 °F 51.8 °F 72% 30.12 in - Calm Calm - N/A   Unknown
6:50 PM 60.8 °F 51.8 °F 72% 30.12 in - Calm Calm - N/A Rain Light Rain
7:20 PM 60.8 °F 53.6 °F 77% 30.12 in - Calm Calm - N/A Rain Light Rain
7:50 PM 59.0 °F 51.8 °F 77% 30.12 in - Calm Calm - N/A   Unknown
8:20 PM - - N/A% 0.00 in - Calm Calm - N/A   Unknown
8:50 PM - - N/A% 0.00 in - North - - N/A   Unknown
9:20 PM 59.0 °F 53.6 °F 82% 30.12 in - Calm Calm - N/A   Unknown
9:50 PM 60.8 °F 53.6 °F 77% 30.12 in - Calm Calm - N/A   Unknown
10:20 PM 60.8 °F 53.6 °F 77% 30.12 in - Calm Calm - N/A   Unknown
10:50 PM 60.8 °F 53.6 °F 77% 30.12 in - Calm Calm - N/A   Unknown
11:20 PM 59.0 °F 53.6 °F 82% 30.12 in - Calm Calm - N/A Rain Light Rain
11:50 PM 60.8 °F 53.6 °F 77% 30.12 in - Calm Calm - N/A   Unknown